Regional Weather Roundup
Issued by NWS

Home | Current Version | Previous Version | Text Only | Print | Product List | Glossary Off
Versions: 1 2 3 4 5 6 7 8 9 10 11 12 13 14 15 16 17 18 19 20 21 22 23 24 25 26 27 28 29 30 31 32 33 34 35 36 37 38 39 40 41 42 43 44 45 46 47 48 49 50

906
ASUS43 KLMK 201102
RWRKY
KENTUCKY REGIONAL WEATHER ROUNDUP
NATIONAL WEATHER SERVICE LOUISVILLE KY
600 AM EST SAT JAN 20 2018

NOTE "FAIR" INDICATES FEW OR NO CLOUDS BELOW 12,000 FEET
WITH NO SIGNIFICANT WEATHER AND/OR OBSTRUCTIONS TO VISIBILITY.

KYZ001>023-026-027-061>063-070>075-201200-
WESTERN AND SOUTH CENTRAL KENTUCKY

CITY           SKY/WX    TMP DP  RH WIND       PRES   REMARKS
PADUCAH        FAIR      36  19  50 SW6       30.11R WCI  31
HENDERSON      FAIR      36  18  48 SW13      30.10S WCI  27
OWENSBORO      FAIR      33  21  61 S7        30.12R WCI  27
HOPKINSVILLE   MOCLDY    41  22  48 S8        30.13R
BOWLING GREEN  CLOUDY    40  28  62 SW5       30.16R
GLASGOW        NOT AVBL
$$

KYZ024-025-028>034-038-045-046-053-201200-
NORTH CENTRAL KENTUCKY

CITY           SKY/WX    TMP DP  RH WIND       PRES   REMARKS
LOUISVILLE/SDF MOCLDY    40  24  53 S7        30.10R
LOUISVILLE/LOU FAIR      38  25  59 S7        30.10S WCI  33
FORT KNOX      MOCLDY    40  23  51 S12       30.08S WCI  33
$$

KYZ035>037-039>044-047>052-055>060-089>105-201200-
NORTHEAST KENTUCKY

CITY           SKY/WX    TMP DP  RH WIND       PRES   REMARKS
LEXINGTON      MOCLDY    40  27  59 SW13      30.10S WCI  32
COVINGTON      FAIR      33  25  72 SW12      30.04S WCI  24
FRANKFORT      FAIR      39  24  55 SW10      30.09R WCI  32
$$

KYZ054-064>069-076>088-106>120-201200-
SOUTHEAST KENTUCKY

CITY           SKY/WX    TMP DP  RH WIND       PRES   REMARKS
JACKSON        CLOUDY    42  31  64 SW7       30.14S
LONDON         CLOUDY    43  30  60 S8        30.17R
SOMERSET       NOT AVBL
MIDDLESBORO    CLOUDY    32  28  86 CALM      30.24R
MONTICELLO     CLOUDY    45  32  60 W12G17    30.19R
$$





USA.gov is the U.S. government's official web portal to all federal, state and local government web resources and services.